STARLINK-35068

Last updated on Tue Sep 16 2025 00:02:08 GMT+0000 (Coordinated Universal Time)

1 65438U 25194E 25258.02309191 -.00164796 00000+0 -96421-3 0 9993 2 65438 97.5977 109.3467 0001799 49.6632 310.4791 15.78689317 3090
UTC large
Height (km)
Speed (km/s)
/
Latitude / Longitude
Inclination (degrees)
Orbital Period (minutes)
Azimuth
Elevation
Range (km)
Doppler Factor

Next 0 passes for location: London (51.5072 / 0.1276)

Sorry there are no passes over London.